| time (UTC) | temp C | wind direction | speed KPH | gust KPH | rain 1hr cm | rain 24hr cm | rain mn cm | humidity % | barometer mb |
| 20260902034005 | 21 | 205 | 3.2 | 3.2 | 0.00 | 0.00 | 0.00 | 91 | 1015.7 |
| 20260902033006 | 21 | 115 | 1.6 | 1.6 | 0.00 | 0.00 | 0.00 | 91 | 1015.8 |
| 20260902032007 | 21 | 205 | 0.0 | 0.0 | 0.00 | 0.00 | 0.00 | 90 | 1015.6 |
| 20260902030002 | 22 | 183 | 0.0 | 1.6 | 0.00 | 0.00 | 0.00 | 89 | 1015.4 |
| 20260902025003 | 22 | 250 | 1.6 | 1.6 | 0.00 | 0.00 | 0.00 | 87 | 1015.4 |
| 20260902023003 | 22 | 318 | 0.0 | 1.6 | 0.00 | 0.00 | 0.00 | 86 | 1015.3 |
| 20260902022004 | 23 | 318 | 1.6 | 1.6 | 0.00 | 0.00 | 0.00 | 85 | 1015.3 |
| 20260902021005 | 23 | 205 | 1.6 | 3.2 | 0.00 | 0.00 | 0.00 | 84 | 1015.3 |
| 20260902020006 | 23 | 273 | 0.0 | 1.6 | 0.00 | 0.00 | 0.00 | 84 | 1015.4 |
| 20260902015007 | 23 | 115 | 3.2 | 4.8 | 0.00 | 0.00 | 0.00 | 83 | 1015.4 |
| 20260902014002 | 23 | 138 | 4.8 | 6.4 | 0.00 | 0.00 | 0.00 | 82 | 1015.5 |
| 20260902013003 | 23 | 183 | 4.8 | 6.4 | 0.00 | 0.00 | 0.00 | 82 | 1015.4 |
| 20260902005002 | 25 | 250 | 1.6 | 1.6 | 0.00 | 0.00 | 0.00 | 81 | 1015.4 |
| 20260902003003 | 25 | 138 | 4.8 | 6.4 | 0.00 | 0.00 | 0.00 | 80 | 1015.6 |
| 20260902002004 | 25 | 205 | 6.4 | 6.4 | 0.00 | 0.00 | 0.00 | 80 | 1015.4 |
| 20260902001005 | 25 | 295 | 4.8 | 6.4 | 0.00 | 0.00 | 0.00 | 79 | 1015.2 |
| 20260902000005 | 25 | 228 | 0.0 | 1.6 | 0.00 | 0.00 | 0.00 | 78 | 1015.2 |
| 20260901234006 | 26 | 273 | 3.2 | 8.0 | 0.00 | 0.00 | 0.00 | 77 | 1015.3 |
| 20260901233007 | 26 | 273 | 6.4 | 14.5 | 0.00 | 0.00 | 0.00 | 77 | 1015.3 |
| 20260901231007 | 27 | 273 | 6.4 | 11.3 | 0.00 | 0.00 | 0.00 | 73 | 1015.0 |
| 20260901230002 | 27 | 228 | 1.6 | 4.8 | 0.00 | 0.00 | 0.00 | 71 | 1014.6 |
| 20260901225003 | 28 | 273 | 3.2 | 6.4 | 0.00 | 0.00 | 0.00 | 70 | 1014.2 |
| 20260901224004 | 28 | 340 | 3.2 | 6.4 | 0.00 | 0.00 | 0.00 | 70 | 1014.4 |
| 20260901223006 | 28 | 318 | 4.8 | 11.3 | 0.00 | 0.00 | 0.00 | 69 | 1014.6 |
| 20260901222007 | 28 | 25 | 3.2 | 9.7 | 0.00 | 0.00 | 0.00 | 69 | 1014.6 |
| 20260901221007 | 28 | 273 | 4.8 | 11.3 | 0.00 | 0.00 | 0.00 | 67 | 1014.7 |
| 20260901220002 | 29 | 3 | 3.2 | 6.4 | 0.00 | 0.00 | 0.00 | 67 | 1014.7 |
| 20260901215002 | 29 | 250 | 3.2 | 9.7 | 0.00 | 0.00 | 0.00 | 65 | 1014.8 |
| 20260901214003 | 29 | 183 | 6.4 | 14.5 | 0.00 | 0.00 | 0.00 | 65 | 1014.8 |
| 20260901213004 | 30 | 318 | 4.8 | 9.7 | 0.00 | 0.00 | 0.00 | 64 | 1014.9 |
| 20260901212005 | 30 | 250 | 6.4 | 14.5 | 0.00 | 0.00 | 0.00 | 64 | 1014.7 |
| 20260901205005 | 30 | 295 | 6.4 | 12.9 | 0.00 | 0.00 | 0.00 | 65 | 1014.5 |
| 20260901204006 | 30 | 25 | 3.2 | 9.7 | 0.00 | 0.00 | 0.00 | 67 | 1014.6 |
| 20260901203007 | 30 | 250 | 3.2 | 16.1 | 0.00 | 0.00 | 0.00 | 65 | 1014.8 |
| 20260901201007 | 31 | 115 | 6.4 | 11.3 | 0.00 | 0.00 | 0.00 | 62 | 1014.6 |
| 20260901200001 | 31 | 273 | 1.6 | 4.8 | 0.00 | 0.00 | 0.00 | 62 | 1014.5 |
| 20260901195003 | 31 | 340 | 9.7 | 17.7 | 0.00 | 0.00 | 0.00 | 60 | 1014.5 |
| 20260901194004 | 31 | 250 | 12.9 | 24.1 | 0.00 | 0.00 | 0.00 | 60 | 1014.6 |
| 20260901193004 | 31 | 318 | 9.7 | 17.7 | 0.00 | 0.00 | 0.00 | 60 | 1014.6 |
| 20260901192005 | 31 | 250 | 9.7 | 14.5 | 0.00 | 0.00 | 0.00 | 62 | 1014.5 |
| 20260901191006 | 31 | 295 | 8.0 | 19.3 | 0.00 | 0.00 | 0.00 | 61 | 1014.6 |
| 20260901190005 | 31 | 273 | 3.2 | 6.4 | 0.00 | 0.00 | 0.00 | 61 | 1014.6 |
| 20260901184005 | 31 | 273 | 8.0 | 17.7 | 0.00 | 0.00 | 0.00 | 60 | 1014.7 |
| 20260901183006 | 31 | 250 | 8.0 | 14.5 | 0.00 | 0.00 | 0.00 | 60 | 1014.7 |
| 20260901182006 | 31 | 228 | 6.4 | 14.5 | 0.00 | 0.00 | 0.00 | 62 | 1014.7 |
| 20260901181007 | 30 | 228 | 11.3 | 22.5 | 0.00 | 0.00 | 0.00 | 61 | 1014.7 |
| 20260901180007 | 31 | 228 | 6.4 | 14.5 | 0.00 | 0.00 | 0.00 | 62 | 1014.7 |
| 20260901175008 | 31 | 250 | 17.7 | 25.7 | 0.00 | 0.00 | 0.00 | 63 | 1014.9 |
| 20260901174002 | 31 | 273 | 16.1 | 25.7 | 0.00 | 0.00 | 0.00 | 62 | 1014.7 |
| 20260901173002 | 30 | 250 | 16.1 | 30.6 | 0.00 | 0.00 | 0.00 | 64 | 1014.6 |
| 20260901172003 | 30 | 228 | 3.2 | 6.4 | 0.00 | 0.00 | 0.00 | 66 | 1014.7 |
| 20260901170002 | 28 | 228 | 17.7 | 24.1 | 0.00 | 0.00 | 0.00 | 67 | 1014.8 |
| 20260901165004 | 29 | 273 | 6.4 | 11.3 | 0.00 | 0.00 | 0.00 | 68 | 1014.9 |
| 20260901164004 | 29 | 250 | 11.3 | 16.1 | 0.00 | 0.00 | 0.00 | 69 | 1014.9 |
| 20260901163005 | 28 | 273 | 17.7 | 27.4 | 0.00 | 0.00 | 0.00 | 69 | 1014.9 |
| 20260901162006 | 29 | 228 | 17.7 | 25.7 | 0.00 | 0.00 | 0.00 | 69 | 1014.8 |
| 20260901160006 | 28 | 340 | 3.2 | 8.0 | 0.00 | 0.00 | 0.00 | 70 | 1014.7 |
| 20260901155007 | 28 | 273 | 3.2 | 9.7 | 0.00 | 0.00 | 0.00 | 71 | 1014.9 |
| 20260901154008 | 28 | 273 | 6.4 | 11.3 | 0.00 | 0.00 | 0.00 | 73 | 1014.9 |
| 20260901153003 | 28 | 228 | 1.6 | 4.8 | 0.00 | 0.00 | 0.00 | 75 | 1014.9 |
| 20260901152004 | 27 | 318 | 3.2 | 9.7 | 0.00 | 0.00 | 0.00 | 75 | 1014.8 |
| 20260901151005 | 27 | 273 | 3.2 | 6.4 | 0.00 | 0.00 | 0.00 | 76 | 1014.9 |
| 20260901150006 | 27 | 250 | 11.3 | 17.7 | 0.00 | 0.00 | 0.00 | 75 | 1014.8 |
| 20260901145007 | 26 | 250 | 8.0 | 14.5 | 0.00 | 0.00 | 0.00 | 78 | 1014.9 |
| 20260901144002 | 26 | 273 | 3.2 | 8.0 | 0.00 | 0.00 | 0.00 | 79 | 1014.9 |
| 20260901142002 | 26 | 250 | 6.4 | 11.3 | 0.00 | 0.00 | 0.00 | 79 | 1015.0 |
| 20260901141003 | 26 | 228 | 6.4 | 14.5 | 0.00 | 0.00 | 0.00 | 80 | 1015.1 |
| 20260901140004 | 25 | 70 | 3.2 | 9.7 | 0.00 | 0.00 | 0.00 | 81 | 1015.1 |
| 20260901135004 | 25 | 273 | 9.7 | 19.3 | 0.00 | 0.00 | 0.00 | 82 | 1015.0 |
| 20260901134005 | 25 | 273 | 3.2 | 9.7 | 0.00 | 0.00 | 0.00 | 83 | 1015.2 |
| 20260901133005 | 25 | 250 | 6.4 | 11.3 | 0.00 | 0.00 | 0.00 | 83 | 1015.1 |
| 20260901132006 | 25 | 250 | 9.7 | 14.5 | 0.00 | 0.00 | 0.00 | 83 | 1015.2 |
| 20260901131002 | 24 | 250 | 3.2 | 6.4 | 0.00 | 0.00 | 0.00 | 84 | 1015.2 |
| 20260901130002 | 24 | 250 | 4.8 | 11.3 | 0.00 | 0.00 | 0.00 | 84 | 1015.4 |
| 20260901124002 | 23 | 250 | 6.4 | 14.5 | 0.00 | 0.00 | 0.00 | 85 | 1015.4 |
| 20260901122002 | 23 | 273 | 4.8 | 8.0 | 0.00 | 0.03 | 0.00 | 85 | 1015.4 |
| 20260901120002 | 23 | 250 | 6.4 | 9.7 | 0.00 | 0.13 | 0.00 | 86 | 1015.2 |
| 20260901115003 | 23 | 228 | 3.2 | 6.4 | 0.00 | 0.15 | 0.00 | 86 | 1015.1 |
| 20260901114003 | 23 | 250 | 1.6 | 4.8 | 0.00 | 0.15 | 0.00 | 85 | 1015.1 |
| 20260901113004 | 23 | 205 | 1.6 | 6.4 | 0.00 | 0.15 | 0.00 | 85 | 1015.1 |
| 20260901112005 | 23 | 228 | 3.2 | 6.4 | 0.00 | 0.15 | 0.00 | 84 | 1014.9 |
| 20260901111005 | 23 | 228 | 9.7 | 14.5 | 0.00 | 0.15 | 0.00 | 84 | 1014.9 |
| 20260901110006 | 23 | 250 | 9.7 | 17.7 | 0.00 | 0.18 | 0.00 | 83 | 1014.8 |
| 20260901103005 | 23 | 205 | 9.7 | 17.7 | 0.00 | 0.38 | 0.00 | 82 | 1014.5 |
| 20260901102005 | 23 | 205 | 9.7 | 16.1 | 0.00 | 0.41 | 0.00 | 81 | 1014.5 |
| 20260901101006 | 23 | 228 | 14.5 | 19.3 | 0.00 | 0.43 | 0.00 | 81 | 1014.4 |
| 20260901100007 | 23 | 205 | 12.9 | 22.5 | 0.00 | 0.43 | 0.00 | 80 | 1014.4 |
| 20260901095001 | 23 | 228 | 14.5 | 22.5 | 0.00 | 0.43 | 0.00 | 80 | 1014.5 |
| 20260901094002 | 23 | 205 | 11.3 | 17.7 | 0.00 | 0.43 | 0.00 | 80 | 1014.4 |
| 20260901093003 | 23 | 250 | 11.3 | 17.7 | 0.00 | 0.43 | 0.00 | 80 | 1014.5 |
| 20260901092002 | 23 | 228 | 16.1 | 19.3 | 0.00 | 0.46 | 0.00 | 80 | 1014.5 |
| 20260901090006 | 23 | 228 | 12.9 | 20.9 | 0.00 | 0.46 | 0.00 | 82 | 1014.5 |
| 20260901085006 | 23 | 228 | 8.0 | 17.7 | 0.00 | 0.46 | 0.00 | 86 | 1014.5 |
| 20260901084006 | 22 | 228 | 8.0 | 14.5 | 0.00 | 0.46 | 0.00 | 91 | 1014.5 |
| 20260901083001 | 21 | 228 | 6.4 | 11.3 | 0.00 | 0.46 | 0.00 | 96 | 1014.6 |
| 20260901082002 | 21 | 250 | 4.8 | 6.4 | 0.00 | 0.46 | 0.00 | 97 | 1014.8 |
| 20260901081002 | 21 | 228 | 1.6 | 4.8 | 0.00 | 0.46 | 0.00 | 98 | 1014.7 |
| 20260901080006 | 21 | 250 | 1.6 | 3.2 | 0.00 | 0.46 | 0.00 | 98 | 1014.6 |
| 20260901075001 | 21 | 340 | 1.6 | 1.6 | 0.00 | 0.48 | 0.00 | 98 | 1014.8 |
| 20260901072005 | 20 | 340 | 0.0 | 1.6 | 0.00 | 0.51 | 0.00 | 97 | 1015.0 |
| 20260901071005 | 21 | 93 | 1.6 | 3.2 | 0.00 | 0.53 | 0.00 | 97 | 1015.1 |
| 20260901070004 | 20 | 48 | 3.2 | 4.8 | 0.00 | 0.53 | 0.00 | 97 | 1015.2 |
| 20260901065004 | 20 | 3 | 1.6 | 3.2 | 0.00 | 0.53 | 0.00 | 97 | 1015.4 |
| 20260901064004 | 20 | 93 | 1.6 | 1.6 | 0.00 | 0.53 | 0.00 | 97 | 1015.4 |
| 20260901063004 | 20 | 70 | 1.6 | 3.2 | 0.00 | 0.53 | 0.00 | 97 | 1015.4 |
| 20260901062005 | 21 | 183 | 0.0 | 1.6 | 0.00 | 0.53 | 0.00 | 97 | 1015.5 |
| 20260901061006 | 21 | 183 | 0.0 | 0.0 | 0.00 | 0.53 | 0.00 | 97 | 1015.6 |
| 20260901055007 | 21 | 205 | 0.0 | 1.6 | 0.00 | 0.56 | 0.00 | 97 | 1015.7 |
| 20260901054002 | 21 | 250 | 0.0 | 1.6 | 0.00 | 0.56 | 0.00 | 97 | 1016.0 |
| 20260901053002 | 21 | 250 | 1.6 | 1.6 | 0.00 | 0.56 | 0.00 | 97 | 1016.1 |
| 20260901052003 | 21 | 228 | 0.0 | 0.0 | 0.00 | 0.56 | 0.00 | 97 | 1016.1 |
| 20260901051011 | 21 | 160 | 1.6 | 1.6 | 0.00 | 0.58 | 0.00 | 97 | 1016.1 |
| 20260901050004 | 21 | 250 | 0.0 | 1.6 | 0.00 | 0.58 | 0.00 | 97 | 1016.2 |
| 20260901045005 | 21 | 250 | 1.6 | 3.2 | 0.00 | 0.61 | 0.00 | 97 | 1016.3 |
| 20260901044006 | 21 | 70 | 1.6 | 1.6 | 0.00 | 0.61 | 0.00 | 96 | 1016.0 |
| 20260901043006 | 21 | 138 | 3.2 | 4.8 | 0.00 | 0.64 | 0.00 | 96 | 1016.1 |
| 20260901042001 | 21 | 160 | 1.6 | 1.6 | 0.00 | 0.66 | 0.00 | 96 | 1016.2 |
| 20260901041002 | 21 | 273 | 1.6 | 3.2 | 0.00 | 0.69 | 0.00 | 96 | 1016.4 |
| 20260901040007 | 21 | 115 | 1.6 | 1.6 | 0.00 | 0.74 | 0.00 | 96 | 1016.3 |
| 20260901035001 | 21 | 138 | 1.6 | 1.6 | 0.00 | 0.79 | 0.74 | 96 | 1016.3 |